SCP
0 0 0 0 0 0 0 0 0 0 0 0 0 0 0 0 0 0 0 0 0 0 0 0 0 0 0 0 0 0 0 0
0 0 0 0 0 0 0 0 0 0 0 0 0 0 0 0 0 0 0 0 0 0 0 0 0 0 0 0 0 0 0 0
0 0 0 0 0 0 0 0 0 0 0 0 0 0 0 0 0 0 0 0 0 0 0 0 0 0 0 0 0 0 0 0
0 0 0 0 0 0 0 0 0 0 0 0 0 0 0 0 0 0 0 0 0 0 0 0 0 0 0 0 0 0 0 0
0 0 0 0 0 0 0 0 0 0 0 0 0 0 0 0 0 0 0 0 0 0 0 0 0 0 0 0 0 0 0 0
0 0 0 0 0 0 0 0 0 0 0 0 0 0 0 0 0 0 0 0 0 0 0 0 0 0 0 0 0 0 0 0
0 0 0 0 0 0 0 0 0 0 0 0 0 0 0 0 0 0 0 0 0 0 0 0 0 0 0 0 0 0 0 0
0 0 0 0 0 0 0 0 0 0 0 0 0 0 0 0 0 0 0 0 0 0 0 0 0 0 0 0 0 0 0 0
0 0 0 0 0 0 0 0 0 0 0 0 0 0 0 0 0 0 0 0 0 0 0 0 0 0 0 0 0 0 0 0
0 0 0 0 0 0 0 0 0 0 0 0 0 0 0 0 0 0 0 0 0 0 0 0 0 0 0 0 0 0 0 0
0 0 0 0 0 0 0 0 0 0 0 0 0 0 0 0 0 0 0 0 0 0 0 0 0 0 0 0 0 0 0 0
0 0 0 0 0 0 0 0 0 0 0 0 0 0 0 0 0 0 0 0 0 0 0 0 0 0 0 0 0 0 0 0
0 0 0 0 0 0 0 0 0 0 0 0 0 0 0 0 0 0 0 0 0 0 0 0 0 0 0 0 0 0 0 0
0 0 0 0 0 0 0 0 0 0 0 0 0 0 0 0 0 0 0 0 0 0 0 0 0 0 0 0 0 0 0 0
0 0 0 0 0 0 0 0 0 0 0 0 0 0 0 0 0 0 0 0 0 0 0 0 0 0 0 0 0 0 0 0
0 0 0 0 0 0 0 0 0 0 0 0 0 0 0 0 0 0 0 0 0 0 0 0 0 0 0 0 0 0 0 0
0 0 0 0 0 0 0 0 0 0 0 0 0 0 0 0 0 0 0 0 0 0 0 0 0 0 0 0 0 0 0 0
0 0 0 0 0 0 0 0 0 0 0 0 0 0 0 0 0 0 0 0 0 0 0 0 0 0 0 0 0 0 0 0
0 0 0 0 0 0 0 0 0 0 0 0 0 0 0 0 0 0 0 0 0 0 0 0 0 0 0 0 0 0 0 0
0 0 0 0 0 0 0 0 0 0 0 0 0 0 0 0 0 0 0 0 0 0 0 0 0 0 0 0 0 0 0 0
Wind_Speed_500mb
45 47 50 51 52 50 47 46 48 50 50 47 43 40 40 39 39 41 40 39 36 30 25 21 19 16 12 11 10 11 11 12
39 44 48 50 49 49 50 49 48 46 44 42 43 43 42 42 42 42 42 42 37 30 26 25 23 18 15 15 13 12 13 15
38 41 45 47 51 51 49 48 47 46 44 44 44 43 43 44 46 45 45 41 35 31 29 28 25 21 20 18 16 14 16 17
36 40 45 50 53 51 49 48 48 47 46 45 43 44 45 48 49 49 45 41 37 35 30 30 29 26 24 20 19 18 18 19
35 35 39 45 47 48 48 48 48 47 45 44 43 44 47 48 49 48 44 42 38 32 32 36 37 31 27 25 24 22 22 21
36 39 43 44 46 45 47 48 47 47 45 43 44 47 49 51 51 48 45 41 35 35 38 42 38 34 32 32 29 28 27 26
47 47 47 44 44 47 48 47 47 47 46 47 49 52 52 53 50 49 44 39 38 39 40 40 42 44 42 39 35 34 36 32
46 43 41 45 43 46 43 44 47 47 48 49 52 52 52 51 53 49 44 39 38 37 40 45 48 50 48 45 43 43 43 40
33 35 37 36 41 42 45 45 47 47 49 51 53 53 52 54 52 48 44 39 38 40 42 49 53 54 56 52 51 51 50 46
31 35 36 38 44 48 50 48 46 49 49 51 52 53 54 55 53 49 44 39 40 41 45 51 51 55 59 61 60 59 59 52
41 35 39 42 44 50 54 50 50 46 46 48 49 50 51 53 53 46 41 41 40 46 47 48 54 56 60 64 67 69 66 58
47 54 35 44 47 49 50 48 40 38 40 45 46 46 48 50 49 45 43 45 48 49 49 54 56 57 61 66 73 70 66 61
52 57 50 50 45 43 46 42 37 38 40 42 43 46 48 49 50 50 51 53 56 56 56 58 61 59 62 67 71 69 69 62
32 42 46 45 46 44 43 41 39 38 38 38 40 43 45 49 50 52 53 55 56 57 60 60 58 56 57 58 62 64 71 60
19 32 39 45 46 44 43 40 35 33 34 36 40 40 44 45 44 45 47 51 52 54 54 52 52 51 49 51 52 56 60 66
21 28 37 44 47 44 40 34 33 32 31 28 26 30 31 32 34 36 38 42 44 46 49 49 48 45 47 47 49 50 51 54
34 38 44 46 44 41 37 33 26 24 24 23 23 23 23 23 27 32 36 41 46 49 49 50 52 50 48 49 50 51 53 57
40 43 45 40 37 37 35 31 26 21 17 15 18 23 24 28 31 35 36 39 43 44 49 50 46 46 46 46 47 49 53 56
40 40 41 40 34 27 22 19 19 17 18 19 22 21 23 23 25 26 28 30 34 37 36 38 39 41 43 43 45 47 49 51
35 32 27 26 25 23 22 20 16 14 11 11 14 14 17 18 19 20 22 24 26 27 31 32 33 36 38 39 42 43 47 52
Wind_Direction_500mb
215 216 212 209 210 208 205 207 208 209 213 217 223 225 226 224 224 221 217 214 212 212 215 220 214 221 228 237 254 280 302 317
205 202 199 197 198 199 200 202 205 211 215 218 222 221 221 220 218 217 216 213 210 213 219 219 217 221 234 248 256 281 303 309
194 195 193 194 198 201 202 205 209 215 219 222 222 220 220 217 214 213 214 211 210 217 222 220 219 225 234 242 263 277 286 304
189 190 193 198 202 204 205 209 213 215 217 218 218 218 216 213 213 213 211 210 214 219 222 223 225 230 237 246 252 263 283 290
193 194 200 203 205 207 206 209 213 214 214 216 217 216 213 213 214 213 209 213 217 222 225 227 227 231 238 242 248 260 271 287
207 210 210 206 203 202 205 209 211 213 214 216 214 211 211 213 213 210 209 215 218 227 231 231 232 238 242 244 249 258 267 273
215 215 212 206 203 204 206 208 213 214 214 213 209 209 210 213 211 210 211 218 226 233 238 239 238 239 242 246 251 256 262 271
219 213 208 207 205 207 205 208 212 212 208 206 207 210 211 212 211 211 216 225 235 241 244 246 245 244 245 248 252 257 263 270
221 212 211 207 207 204 205 208 209 207 205 206 209 211 212 214 213 216 222 232 241 246 249 250 248 248 251 252 255 260 265 270
230 221 215 211 209 204 203 206 208 209 207 210 212 214 215 215 215 220 228 237 246 254 256 257 260 257 257 257 258 262 266 270
231 217 211 211 209 207 206 206 212 210 211 213 216 218 220 220 220 226 234 244 250 254 258 263 264 262 261 262 261 263 265 271
220 212 220 212 206 206 207 212 216 214 212 216 219 222 224 223 225 232 240 247 252 258 263 265 267 268 266 264 266 267 269 273
221 222 221 210 208 212 210 207 206 208 212 214 218 221 221 222 225 234 241 247 255 261 267 273 273 273 273 270 272 275 273 275
219 219 218 214 214 214 202 198 199 204 210 213 216 219 221 223 229 237 245 255 262 269 273 275 278 280 277 273 272 273 275 275
199 199 200 196 189 181 186 187 191 196 205 210 213 215 219 224 231 243 253 261 267 270 275 280 280 277 275 273 271 270 271 276
166 177 179 172 170 170 173 177 182 186 191 198 201 209 216 228 240 249 257 265 272 277 279 281 283 281 278 279 278 275 273 272
157 160 158 159 163 163 163 164 167 179 189 196 204 215 226 237 249 259 266 274 277 279 281 281 281 283 281 277 275 275 273 270
152 153 149 151 158 155 155 155 166 181 192 214 236 244 253 257 263 268 270 274 279 282 282 285 285 281 279 275 274 274 274 273
147 146 145 147 150 153 164 179 192 210 225 236 246 254 257 260 265 270 278 280 283 284 290 288 288 286 282 283 282 280 279 280
160 160 160 159 166 180 188 193 195 203 215 234 247 254 269 272 277 286 284 285 288 292 291 289 289 286 285 282 279 280 283 288
Wind_Speed_850mb
45 47 50 51 52 50 47 46 48 50 50 47 43 40 40 39 39 41 40 39 36 30 25 21 19 16 12 11 10 11 11 12
39 44 48 50 49 49 50 49 48 46 44 42 43 43 42 42 42 42 42 42 37 30 26 25 23 18 15 15 13 12 13 15
38 41 45 47 51 51 49 48 47 46 44 44 44 43 43 44 46 45 45 41 35 31 29 28 25 21 20 18 16 14 16 17
36 40 45 50 53 51 49 48 48 47 46 45 43 44 45 48 49 49 45 41 37 35 30 30 29 26 24 20 19 18 18 19
35 35 39 45 47 48 48 48 48 47 45 44 43 44 47 48 49 48 44 42 38 32 32 36 37 31 27 25 24 22 22 21
36 39 43 44 46 45 47 48 47 47 45 43 44 47 49 51 51 48 45 41 35 35 38 42 38 34 32 32 29 28 27 26
47 47 47 44 44 47 48 47 47 47 46 47 49 52 52 53 50 49 44 39 38 39 40 40 42 44 42 39 35 34 36 32
46 43 41 45 43 46 43 44 47 47 48 49 52 52 52 51 53 49 44 39 38 37 40 45 48 50 48 45 43 43 43 40
33 35 37 36 41 42 45 45 47 47 49 51 53 53 52 54 52 48 44 39 38 40 42 49 53 54 56 52 51 51 50 46
31 35 36 38 44 48 50 48 46 49 49 51 52 53 54 55 53 49 44 39 40 41 45 51 51 55 59 61 60 59 59 52
41 35 39 42 44 50 54 50 50 46 46 48 49 50 51 53 53 46 41 41 40 46 47 48 54 56 60 64 67 69 66 58
47 54 35 44 47 49 50 48 40 38 40 45 46 46 48 50 49 45 43 45 48 49 49 54 56 57 61 66 73 70 66 61
52 57 50 50 45 43 46 42 37 38 40 42 43 46 48 49 50 50 51 53 56 56 56 58 61 59 62 67 71 69 69 62
32 42 46 45 46 44 43 41 39 38 38 38 40 43 45 49 50 52 53 55 56 57 60 60 58 56 57 58 62 64 71 60
19 32 39 45 46 44 43 40 35 33 34 36 40 40 44 45 44 45 47 51 52 54 54 52 52 51 49 51 52 56 60 66
21 28 37 44 47 44 40 34 33 32 31 28 26 30 31 32 34 36 38 42 44 46 49 49 48 45 47 47 49 50 51 54
34 38 44 46 44 41 37 33 26 24 24 23 23 23 23 23 27 32 36 41 46 49 49 50 52 50 48 49 50 51 53 57
40 43 45 40 37 37 35 31 26 21 17 15 18 23 24 28 31 35 36 39 43 44 49 50 46 46 46 46 47 49 53 56
40 40 41 40 34 27 22 19 19 17 18 19 22 21 23 23 25 26 28 30 34 37 36 38 39 41 43 43 45 47 49 51
35 32 27 26 25 23 22 20 16 14 11 11 14 14 17 18 19 20 22 24 26 27 31 32 33 36 38 39 42 43 47 52
Wind_Direction_850mb
215 216 212 209 210 208 205 207 208 209 213 217 223 225 226 224 224 221 217 214 212 212 215 220 214 221 228 237 254 280 302 317
205 202 199 197 198 199 200 202 205 211 215 218 222 221 221 220 218 217 216 213 210 213 219 219 217 221 234 248 256 281 303 309
194 195 193 194 198 201 202 205 209 215 219 222 222 220 220 217 214 213 214 211 210 217 222 220 219 225 234 242 263 277 286 304
189 190 193 198 202 204 205 209 213 215 217 218 218 218 216 213 213 213 211 210 214 219 222 223 225 230 237 246 252 263 283 290
193 194 200 203 205 207 206 209 213 214 214 216 217 216 213 213 214 213 209 213 217 222 225 227 227 231 238 242 248 260 271 287
207 210 210 206 203 202 205 209 211 213 214 216 214 211 211 213 213 210 209 215 218 227 231 231 232 238 242 244 249 258 267 273
215 215 212 206 203 204 206 208 213 214 214 213 209 209 210 213 211 210 211 218 226 233 238 239 238 239 242 246 251 256 262 271
219 213 208 207 205 207 205 208 212 212 208 206 207 210 211 212 211 211 216 225 235 241 244 246 245 244 245 248 252 257 263 270
221 212 211 207 207 204 205 208 209 207 205 206 209 211 212 214 213 216 222 232 241 246 249 250 248 248 251 252 255 260 265 270
230 221 215 211 209 204 203 206 208 209 207 210 212 214 215 215 215 220 228 237 246 254 256 257 260 257 257 257 258 262 266 270
231 217 211 211 209 207 206 206 212 210 211 213 216 218 220 220 220 226 234 244 250 254 258 263 264 262 261 262 261 263 265 271
220 212 220 212 206 206 207 212 216 214 212 216 219 222 224 223 225 232 240 247 252 258 263 265 267 268 266 264 266 267 269 273
221 222 221 210 208 212 210 207 206 208 212 214 218 221 221 222 225 234 241 247 255 261 267 273 273 273 273 270 272 275 273 275
219 219 218 214 214 214 202 198 199 204 210 213 216 219 221 223 229 237 245 255 262 269 273 275 278 280 277 273 272 273 275 275
199 199 200 196 189 181 186 187 191 196 205 210 213 215 219 224 231 243 253 261 267 270 275 280 280 277 275 273 271 270 271 276
166 177 179 172 170 170 173 177 182 186 191 198 201 209 216 228 240 249 257 265 272 277 279 281 283 281 278 279 278 275 273 272
157 160 158 159 163 163 163 164 167 179 189 196 204 215 226 237 249 259 266 274 277 279 281 281 281 283 281 277 275 275 273 270
152 153 149 151 158 155 155 155 166 181 192 214 236 244 253 257 263 268 270 274 279 282 282 285 285 281 279 275 274 274 274 273
147 146 145 147 150 153 164 179 192 210 225 236 246 254 257 260 265 270 278 280 283 284 290 288 288 286 282 283 282 280 279 280
160 160 160 159 166 180 188 193 195 203 215 234 247 254 269 272 277 286 284 285 288 292 291 289 289 286 285 282 279 280 283 288